Weather reports worldwide

Advertisment
Cozzo Spadaro, Italy (16480): temperature & dewpoint: 15.05.2019 05:00:00 - 21.05.2019 05:00:00 (CEST)Cozzo Spadaro, Italy (16480): wind speed: 15.05.2019 05:00:00 - 21.05.2019 05:00:00 (CEST)Cozzo Spadaro, Italy (16480): wind direction: 15.05.2019 05:00:00 - 21.05.2019 05:00:00 (CEST)Cozzo Spadaro, Italy (16480): reduced air pressure: 15.05.2019 05:00:00 - 21.05.2019 05:00:00 (CEST)Cozzo Spadaro, Italy (16480): visibility: 15.05.2019 05:00:00 - 21.05.2019 05:00:00 (CEST)Cozzo Spadaro, Italy (16480): sunshine duration: 15.05.2019 05:00:00 - 21.05.2019 05:00:00 (CEST)
Date & Time tt [°C] td [°C] ff [km/h] ff [kn] dd ppp [hPa] vv [km] sd [min]
21.05.2019 05:00:00 - - - - - - - -
21.05.2019 04:00:00 - - - - - - - -
21.05.2019 03:00:00 - - - - - - - -
21.05.2019 02:00:00 - - - - - - - -
21.05.2019 01:00:00 - - - - - - - -
21.05.2019 00:00:00 - - - - - - - -
20.05.2019 23:00:00 - - - - - - - -
20.05.2019 22:00:00 - - - - - - - -
20.05.2019 21:00:00 - - - - - - - -
20.05.2019 20:00:00 18,8 14,5 15 8 WNW 1012,9 20 24
20.05.2019 19:00:00 19,4 15,1 16 9 W 1012,7 20 60
20.05.2019 18:00:00 20,4 14,5 18 10 W 1012,5 20 60
20.05.2019 17:00:00 23,0 13,2 18 10 W 1012,5 20 60
20.05.2019 16:00:00 23,6 10,3 21 11 W 1012,4 20 60
20.05.2019 15:00:00 24,6 7,7 18 10 W 1012,3 20 60
20.05.2019 14:00:00 22,6 9,7 16 9 WNW 1012,6 20 60
20.05.2019 13:00:00 20,6 10,7 18 10 W 1012,6 20 60
20.05.2019 12:00:00 21,4 11,7 15 8 W 1012,8 20 54
20.05.2019 11:00:00 20,0 9,3 9 5 WSW 1012,0 20 54
20.05.2019 10:00:00 20,4 11,9 8 4 SSE 1011,8 20 60
20.05.2019 09:00:00 20,2 12,9 4 2 E 1011,5 20 60
20.05.2019 08:00:00 18,0 13,1 4 2 N 1011,6 20 6
20.05.2019 07:00:00 - - - - - - - -
20.05.2019 06:00:00 - - - - - - - -
20.05.2019 05:00:00 - - - - - - - -
20.05.2019 04:00:00 - - - - - - - -
20.05.2019 03:00:00 - - - - - - - -
20.05.2019 02:00:00 - - - - - - - -
20.05.2019 01:00:00 - - - - - - - -
20.05.2019 00:00:00 - - - - - - - -
19.05.2019 23:00:00 - - - - - - - -
19.05.2019 22:00:00 - - - - - - - -
19.05.2019 21:00:00 - - - - - - - -
19.05.2019 20:00:00 18,0 14,9 11 6 NW 1009,0 10 0
19.05.2019 19:00:00 18,8 14,9 15 8 WNW 1008,4 20 18
19.05.2019 18:00:00 19,2 15,1 16 9 W 1007,9 20 42
19.05.2019 17:00:00 20,8 15,6 18 10 WNW 1007,0 20 60
19.05.2019 16:00:00 20,8 15,1 22 12 WNW 1006,9 20 60
19.05.2019 15:00:00 21,2 15,1 21 11 W 1006,8 20 60
19.05.2019 14:00:00 21,0 14,9 26 14 W 1006,8 20 60
19.05.2019 13:00:00 21,6 14,0 24 13 WNW 1006,1 20 60
19.05.2019 12:00:00 21,4 15,3 22 12 W 1005,9 20 60
19.05.2019 11:00:00 21,0 16,2 16 9 W 1006,0 10 60
19.05.2019 10:00:00 19,6 15,7 15 8 W 1006,0 10 60
19.05.2019 09:00:00 18,4 15,7 4 2 W 1006,0 10 60
19.05.2019 08:00:00 16,8 14,1 2 1 WNW 1004,3 10 18
19.05.2019 07:00:00 - - - - - - - -
19.05.2019 06:00:00 - - - - - - - -
19.05.2019 05:00:00 - - - - - - - -
19.05.2019 04:00:00 - - - - - - - -
19.05.2019 03:00:00 - - - - - - - -
19.05.2019 02:00:00 - - - - - - - -
19.05.2019 01:00:00 - - - - - - - -
19.05.2019 00:00:00 - - - - - - - -
18.05.2019 23:00:00 - - - - - - - -
18.05.2019 22:00:00 - - - - - - - -
18.05.2019 21:00:00 - - - - - - - -
18.05.2019 20:00:00 17,0 14,3 15 8 ENE 1006,0 10 0
18.05.2019 19:00:00 18,0 15,3 15 8 NE 1006,0 10 18
18.05.2019 18:00:00 18,4 15,7 13 7 ENE 1006,1 10 0
18.05.2019 17:00:00 18,6 15,8 13 7 E 1006,8 10 0
18.05.2019 16:00:00 19,0 16,0 9 5 ENE 1007,1 10 0
18.05.2019 15:00:00 19,0 16,2 8 4 ESE 1007,2 10 0
18.05.2019 14:00:00 18,8 16,2 11 6 ESE 1007,8 10 0
18.05.2019 13:00:00 18,6 16,0 11 6 E 1007,8 10 0
18.05.2019 12:00:00 18,4 15,8 16 9 E 1008,0 10 0
18.05.2019 11:00:00 18,0 15,4 18 10 ESE 1008,1 10 0
18.05.2019 10:00:00 17,8 15,3 18 10 ESE 1008,9 10 0
18.05.2019 09:00:00 17,0 14,5 16 9 E 1008,0 10 0
18.05.2019 08:00:00 16,8 14,3 15 8 E 1008,1 10 0
18.05.2019 07:00:00 - - - - - - - -
18.05.2019 06:00:00 - - - - - - - -
18.05.2019 05:00:00 - - - - - - - -
18.05.2019 04:00:00 - - - - - - - -
18.05.2019 03:00:00 - - - - - - - -
18.05.2019 02:00:00 - - - - - - - -
18.05.2019 01:00:00 - - - - - - - -
18.05.2019 00:00:00 - - - - - - - -
17.05.2019 23:00:00 - - - - - - - -
17.05.2019 22:00:00 - - - - - - - -
17.05.2019 21:00:00 - - - - - - - -
17.05.2019 20:00:00 16,4 13,9 5 3 S 1010,1 20 42
17.05.2019 19:00:00 17,0 13,7 8 4 S 1010,1 20 60
17.05.2019 18:00:00 17,8 13,3 9 5 S 1010,6 20 60
17.05.2019 17:00:00 18,4 12,8 11 6 S 1011,1 20 60
17.05.2019 16:00:00 19,0 13,4 11 6 SSW 1011,0 20 60
17.05.2019 15:00:00 19,0 13,4 13 7 S 1011,0 20 60
17.05.2019 14:00:00 19,0 13,2 9 5 S 1011,7 20 60
17.05.2019 13:00:00 19,4 12,9 9 5 S 1011,9 20 60
17.05.2019 12:00:00 19,0 13,6 8 4 SSW 1012,0 20 60
17.05.2019 11:00:00 18,8 13,9 8 4 SSE 1012,1 20 60
17.05.2019 10:00:00 18,2 13,9 4 2 ENE 1011,3 20 60
17.05.2019 09:00:00 17,8 13,7 4 2 NE 1011,2 20 60
17.05.2019 08:00:00 16,0 12,4 4 2 NNW 1011,1 20 60
17.05.2019 07:00:00 - - - - - - - -
17.05.2019 06:00:00 - - - - - - - -
17.05.2019 05:00:00 - - - - - - - -
17.05.2019 04:00:00 - - - - - - - -
17.05.2019 03:00:00 - - - - - - - -
17.05.2019 02:00:00 - - - - - - - -
17.05.2019 01:00:00 - - - - - - - -
17.05.2019 00:00:00 - - - - - - - -
16.05.2019 23:00:00 - - - - - - - -
16.05.2019 22:00:00 - - - - - - - -
16.05.2019 21:00:00 - - - - - - - -
16.05.2019 20:00:00 15,4 9,7 11 6 N 1007,9 20 0
16.05.2019 19:00:00 15,6 11,4 21 11 N 1007,1 20 48
16.05.2019 18:00:00 16,0 11,6 15 8 WNW 1006,1 20 48
16.05.2019 17:00:00 16,8 10,7 18 10 WNW 1005,7 20 60
16.05.2019 16:00:00 17,0 9,9 21 11 W 1005,0 20 60
16.05.2019 15:00:00 17,0 9,2 22 12 W 1005,2 20 60
16.05.2019 14:00:00 17,0 8,2 26 14 W 1005,2 20 60
16.05.2019 13:00:00 17,6 8,2 22 12 W 1005,9 20 60
16.05.2019 12:00:00 17,2 12,7 22 12 W 1005,8 20 60
16.05.2019 11:00:00 16,0 11,4 11 6 WNW 1006,1 20 30
16.05.2019 10:00:00 14,0 10,2 15 8 NW 1005,2 10 0
16.05.2019 09:00:00 15,4 11,6 18 10 SSW 1005,1 10 0
16.05.2019 08:00:00 15,4 11,6 18 10 SSW 1006,0 10 0
16.05.2019 07:00:00 - - - - - - - -
16.05.2019 06:00:00 - - - - - - - -
16.05.2019 05:00:00 - - - - - - - -
16.05.2019 04:00:00 - - - - - - - -
16.05.2019 03:00:00 - - - - - - - -
16.05.2019 02:00:00 - - - - - - - -
16.05.2019 01:00:00 - - - - - - - -
16.05.2019 00:00:00 - - - - - - - -
15.05.2019 23:00:00 - - - - - - - -
15.05.2019 22:00:00 - - - - - - - -
15.05.2019 21:00:00 - - - - - - - -
15.05.2019 20:00:00 15,8 12,0 15 8 W 1010,1 20 0
15.05.2019 19:00:00 16,6 12,6 18 10 WNW 1010,0 20 12
15.05.2019 18:00:00 17,0 12,7 22 12 W 1010,0 20 36
15.05.2019 17:00:00 17,2 11,9 22 12 W 1010,0 20 42
15.05.2019 16:00:00 18,0 12,5 22 12 W 1010,0 20 60
15.05.2019 15:00:00 18,6 11,7 22 12 W 1010,0 20 60
15.05.2019 14:00:00 17,8 9,9 22 12 W 1010,5 20 54
15.05.2019 13:00:00 18,6 11,2 21 11 W 1010,9 20 60
15.05.2019 12:00:00 18,0 10,1 18 10 W 1011,0 20 60
15.05.2019 11:00:00 18,6 11,9 13 7 W 1011,0 20 60
15.05.2019 10:00:00 17,8 11,8 8 4 W 1010,9 20 54
15.05.2019 09:00:00 17,0 11,9 8 4 WNW 1010,6 20 60
15.05.2019 08:00:00 15,6 11,4 5 3 WNW 1010,3 20 60
15.05.2019 07:00:00 - - - - - - - -
15.05.2019 06:00:00 - - - - - - - -
15.05.2019 05:00:00 - - - - - - - -

tt = temperature
td = dewpoint
ff = wind speed
dd = wind direction
ppp = reduced air pressure
vv = visibility
sd = sunshine duration

Next stations